GFSSW_con_mucape_132.txt.gz
CAPE
79 84 102 101 122 104 77 76 61 57 44 23 0 0 11 20 22 10 1 0 0 0 0 0 0 0 0 0 0 0 0 0 0 0 0 0 0 0 0 0 0 0 0 5 88
79 84 70 96 97 127 106 108 89 85 63 43 27 11 16 36 38 27 0 0 0 0 0 0 0 0 0 0 0 0 0 0 0 0 0 0 0 0 0 0 0 0 0 44 57
64 66 66 76 88 109 121 128 115 106 100 78 59 33 50 54 41 3 0 0 0 0 0 0 0 0 0 0 0 0 0 0 0 0 0 0 0 0 0 0 0 0 0 35 61
52 46 55 57 73 108 101 133 150 117 122 119 97 85 77 95 4 0 11 49 0 3 0 0 0 1 0 0 0 0 0 0 0 0 0 0 0 0 0 0 0 0 0 1 106
59 53 50 65 61 91 112 114 169 139 108 141 126 83 68 29 14 10 0 29 0 0 0 11 27 38 15 2 0 1 0 0 0 0 0 0 0 0 0 0 0 0 0 0 81
63 56 57 65 82 90 115 106 132 184 129 147 143 107 77 2 0 0 65 46 2 4 29 38 60 59 38 12 15 14 0 0 0 0 0 0 0 0 0 0 0 0 0 0 15
74 75 69 66 83 99 109 119 105 195 175 149 207 125 63 20 0 0 55 99 66 53 63 67 88 70 43 23 7 6 0 0 0 0 0 0 0 0 0 0 0 0 0 0 0
68 59 77 80 77 89 106 133 108 129 225 161 229 87 30 10 5 13 50 52 76 87 100 96 105 61 55 32 5 2 8 0 0 0 0 0 0 0 0 0 0 0 0 0 0
73 64 66 73 72 69 90 125 116 136 194 206 59 87 7 14 14 54 51 69 68 78 88 53 78 78 38 8 8 35 0 0 0 0 0 0 0 0 0 0 0 0 0 0 0
80 81 81 87 85 91 95 132 130 166 162 103 47 70 6 8 58 95 110 74 97 112 46 84 77 35 0 51 5 3 5 0 0 1 0 0 0 0 0 0 0 0 0 0 0
102 108 113 107 105 110 102 118 65 79 63 19 4 0 0 0 0 79 75 113 86 86 52 97 47 2 0 17 1 0 1 3 0 4 0 0 0 0 0 0 0 0 0 0 0
118 131 105 109 110 135 94 54 0 38 61 45 43 0 0 0 32 43 142 102 74 41 44 46 8 0 0 0 9 8 6 0 0 8 0 0 0 0 0 0 0 0 0 0 0
131 155 133 150 160 142 75 10 46 84 78 80 26 1 0 13 3 11 182 154 31 59 33 32 0 0 0 0 14 3 11 0 1 16 0 0 0 0 0 0 0 0 0 0 0
145 134 127 188 132 49 32 27 92 73 98 26 65 18 0 2 42 18 181 115 89 38 48 75 0 19 0 0 0 1 0 10 15 29 0 8 0 0 0 0 0 0 0 0 0
167 177 153 176 55 0 2 55 60 140 0 18 14 1 0 13 0 9 92 173 30 1 42 11 5 12 37 0 14 0 3 6 22 36 16 0 0 0 0 0 0 0 0 0 0
164 233 260 186 104 13 21 67 88 73 0 0 0 10 7 25 3 89 160 147 88 69 10 14 6 28 2 24 20 11 31 17 28 32 18 0 0 0 0 0 0 0 0 0 0
194 194 226 158 29 50 85 149 24 10 0 19 1 9 4 0 1 75 138 110 41 0 15 10 7 1 4 13 28 43 84 13 15 15 0 0 1 0 0 0 0 0 0 0 0
225 219 151 100 102 120 115 26 31 3 11 0 0 16 39 25 20 68 43 58 27 0 0 6 3 1 12 3 14 8 26 13 15 0 0 0 0 0 0 0 0 0 0 0 0
280 108 38 48 114 128 82 28 6 4 0 8 17 0 0 17 6 44 16 9 3 25 0 0 0 0 0 0 18 20 62 16 5 2 0 0 0 0 0 0 0 0 0 0 0
165 78 8 0 0 42 44 96 40 41 26 63 50 34 11 7 17 14 26 0 8 5 7 12 0 2 9 0 0 9 37 29 13 0 2 0 0 0 0 0 0 0 0 0 0
85 26 0 24 0 1 1 16 18 13 121 79 53 65 51 10 0 0 0 0 0 10 28 67 20 1 31 4 0 7 2 0 0 0 0 0 0 0 0 4 0 0 0 0 0
41 0 60 49 1 0 29 1 11 34 110 118 113 31 38 0 20 3 0 0 2 3 90 29 34 0 20 24 16 4 1 0 0 0 0 0 0 0 0 0 0 0 0 0 0
9 56 109 2 0 2 0 2 11 42 45 72 68 77 55 59 41 0 0 21 1 9 28 23 16 5 4 7 20 23 2 0 0 0 0 0 0 0 0 0 0 0 1 1 0
0 0 92 34 0 0 5 38 77 35 29 57 61 126 48 101 22 26 12 3 17 13 139 32 18 11 0 9 2 29 17 25 86 18 0 0 0 0 3 3 1 1 6 0 0
1 32 8 0 0 0 7 16 106 82 17 38 56 110 16 3 30 7 0 0 0 50 119 46 28 6 14 28 54 50 46 63 47 12 3 0 0 0 2 3 1 5 15 1 0
0 0 0 0 0 0 0 28 12 46 50 36 27 6 2 0 0 0 0 0 0 40 62 33 10 8 8 17 24 32 31 52 32 20 0 1 0 0 0 21 5 0 0 0 0
2 15 0 0 0 0 1 2 6 26 5 0 5 0 0 0 0 1 0 0 0 31 77 77 31 12 0 0 1 1 0 17 23 60 41 7 0 0 17 13 0 0 0 0 0

GFSSW_con_mucape_138.txt.gz
CAPE
105 77 66 73 77 76 55 61 36 0 0 0 0 0 0 0 0 1 0 0 0 0 0 0 0 0 0 0 0 0 0 0 0 0 0 0 0 0 0 0 0 0 0 0 38
106 100 79 70 86 76 80 83 73 31 0 0 2 8 0 0 0 0 0 8 0 0 0 0 0 0 0 0 0 0 0 0 0 0 0 0 0 0 0 0 0 0 46 51 149
99 97 105 76 75 81 69 77 69 62 35 0 0 17 5 22 0 0 0 0 30 0 0 0 0 0 0 0 0 0 0 0 0 0 0 0 0 0 0 0 0 0 10 169 178
93 79 78 83 68 62 79 73 65 75 75 30 0 36 36 32 0 0 5 3 44 0 13 0 0 0 0 0 0 0 0 0 0 0 0 0 0 0 0 0 0 0 0 117 145
76 88 84 81 88 38 61 85 74 77 80 55 29 50 45 18 6 24 28 42 0 0 0 0 0 0 0 0 0 0 0 0 0 0 0 0 0 0 0 0 0 0 0 58 110
73 78 93 87 80 36 51 93 100 90 76 85 64 74 64 0 0 24 38 21 14 12 12 1 0 0 7 0 0 0 0 0 0 0 0 0 0 0 0 0 0 0 0 6 103
81 93 106 91 89 76 75 98 134 95 79 117 113 46 27 0 0 0 0 13 31 5 0 0 19 27 10 8 0 0 0 0 0 0 0 0 0 0 0 0 0 0 0 0 0
86 98 97 91 90 94 95 77 107 113 75 95 114 42 0 0 0 26 19 11 25 4 0 3 40 46 48 27 12 0 0 0 0 0 0 0 0 0 0 0 0 0 0 0 0
74 70 80 111 112 93 118 86 44 101 92 85 19 0 0 0 0 4 28 43 17 39 39 51 53 46 40 45 21 17 0 0 0 0 0 0 0 0 0 0 0 0 0 0 0
95 87 92 110 121 110 113 91 68 40 60 48 31 14 1 0 0 0 16 63 43 24 34 55 62 50 34 38 0 0 0 1 0 0 0 0 0 0 0 0 0 0 0 0 0
109 106 110 108 124 132 73 13 0 0 40 12 35 8 0 0 0 0 0 56 72 54 28 19 13 0 1 14 10 2 0 0 0 0 0 0 0 0 0 0 0 0 0 0 0
120 107 118 132 171 138 51 4 0 0 0 0 22 10 2 1 16 1 0 68 78 34 38 13 0 1 2 7 8 5 0 0 0 0 0 0 0 0 0 0 0 0 0 0 0
130 111 121 129 132 137 31 24 18 46 6 0 1 33 10 2 1 9 22 58 42 19 6 0 0 0 0 0 4 6 0 0 0 0 0 0 0 0 0 0 0 0 0 0 0
120 109 143 132 75 27 41 44 35 20 0 0 18 16 17 20 0 0 68 54 48 28 23 20 0 0 0 0 0 0 0 0 3 30 0 0 0 0 0 0 0 0 0 0 0
126 127 126 125 0 14 3 50 53 38 0 0 0 0 0 0 0 0 61 57 14 16 40 1 1 7 0 0 0 0 0 0 5 22 18 0 5 0 0 0 0 0 0 0 0
131 146 139 114 0 0 36 82 41 8 0 0 0 9 10 3 0 33 17 34 6 36 20 0 0 6 0 0 6 6 17 34 35 23 0 0 0 0 0 0 0 0 0 0 0
139 181 110 30 0 28 73 50 0 0 0 0 0 0 0 0 4 34 35 34 0 0 0 7 2 20 25 23 33 34 47 0 0 0 0 0 0 0 0 0 0 0 0 0 0
143 177 103 23 12 36 41 3 0 0 0 0 0 0 0 0 0 9 30 30 13 0 0 0 0 3 26 28 1 1 11 0 0 0 0 0 0 0 0 0 0 0 0 0 0
193 54 31 22 28 50 27 0 0 0 0 0 6 0 0 0 5 19 35 17 7 6 0 0 0 0 6 12 22 10 41 3 33 9 14 0 0 0 0 0 0 0 0 0 0
83 36 0 26 29 66 17 0 0 4 0 17 0 0 0 0 0 0 0 5 13 7 1 0 0 0 0 0 11 27 10 49 52 0 0 5 0 0 0 0 0 0 0 0 0
44 0 0 18 43 7 0 0 0 0 10 3 0 5 0 0 15 6 6 2 8 26 22 13 0 0 3 5 2 10 41 46 17 46 0 0 0 0 0 0 0 0 0 0 0
0 0 10 58 10 0 5 0 4 2 9 13 9 16 51 11 12 10 7 0 0 7 29 4 28 0 0 5 0 10 1 11 24 0 11 3 0 0 0 0 0 0 0 0 0
0 2 49 42 2 17 0 0 0 0 18 15 6 20 13 59 76 22 6 0 4 21 13 11 33 7 0 0 7 19 5 9 12 17 14 0 0 0 0 3 4 0 1 0 0
0 23 73 51 3 7 14 6 9 0 8 65 24 46 64 24 29 46 14 9 35 20 47 44 44 15 0 0 0 5 33 16 51 5 0 0 0 0 0 0 0 2 0 8 0
1 13 19 20 1 0 3 1 0 0 1 1 59 25 0 16 24 57 15 25 12 12 77 120 61 9 24 13 10 1 0 1 3 4 12 2 12 2 1 1 5 4 5 0 0
0 9 21 3 0 0 0 0 0 1 6 23 0 10 27 5 26 3 6 0 0 18 94 105 91 42 5 11 0 2 9 16 4 12 0 0 0 12 28 26 8 19 5 0 0
10 3 47 5 2 0 0 0 5 9 30 0 0 2 7 0 5 35 11 10 31 33 47 100 56 32 0 1 27 2 8 0 0 0 6 0 2 38 42 20 6 0 3 21 26

GFSSW_con_mucape_141.txt.gz
CAPE
84 86 65 105 99 72 41 48 7 0 0 0 0 0 0 0 0 0 0 0 0 0 0 0 0 0 0 0 0 0 0 0 0 0 0 0 0 0 0 0 0 0 0 0 0
87 106 108 105 83 82 92 93 66 19 0 0 0 0 0 0 0 0 0 0 0 0 0 0 0 0 0 0 0 0 0 0 0 0 0 0 0 0 0 0 0 0 4 1 30
102 148 130 99 116 84 84 99 85 64 30 0 0 0 0 1 0 0 0 0 0 0 0 0 0 0 0 0 0 0 0 0 0 0 0 0 0 0 0 0 0 0 0 8 108
63 115 114 105 108 125 100 83 69 77 80 28 0 0 24 13 0 0 0 1 0 0 0 0 0 0 0 0 0 0 0 0 0 0 0 0 0 0 0 0 0 0 0 0 129
73 70 82 79 101 105 123 95 75 66 85 80 24 49 24 9 0 0 0 11 0 0 0 0 0 0 0 0 0 0 0 0 0 0 0 0 0 0 0 0 0 0 0 0 0
77 63 81 69 85 89 102 131 91 76 81 111 78 77 39 0 0 1 0 9 6 0 0 0 0 0 0 0 0 0 0 0 0 0 0 0 0 0 0 0 0 0 0 0 0
118 74 92 87 90 118 94 99 145 90 82 94 110 37 28 0 0 0 0 3 9 5 12 0 7 0 7 9 3 0 0 0 0 0 0 0 0 0 0 0 0 0 0 0 0
100 79 78 90 113 119 133 93 99 114 111 89 105 6 0 0 0 12 0 0 15 11 0 8 26 48 41 30 21 0 0 0 0 0 0 0 0 0 0 0 0 0 0 0 0
71 79 85 74 97 103 130 120 77 80 112 73 40 7 0 0 0 0 0 0 15 29 28 43 47 51 50 50 21 12 0 0 0 0 0 0 0 0 0 0 0 0 0 0 0
81 78 93 90 111 112 93 84 77 24 75 56 35 7 5 0 0 0 0 6 14 24 35 42 55 23 38 32 0 0 0 0 0 0 0 0 0 0 0 0 0 0 0 0 0
131 92 82 83 79 109 97 20 10 9 39 0 25 0 0 0 0 0 28 41 72 60 35 32 10 0 0 1 6 0 0 0 0 1 0 0 0 0 0 0 0 0 0 0 0
123 123 109 94 117 99 40 4 0 0 0 0 33 20 6 0 0 0 0 19 64 30 38 12 0 0 5 8 0 0 0 0 0 13 0 0 0 0 0 0 0 0 0 0 0
95 104 133 117 117 71 39 6 21 46 0 0 0 30 8 4 0 0 0 13 29 19 0 0 0 0 0 0 0 0 0 0 0 0 0 0 0 0 0 0 0 0 0 0 0
143 136 98 94 34 5 34 41 44 42 0 0 0 5 30 12 0 0 3 0 45 0 20 0 0 0 0 0 0 0 0 2 0 0 0 0 0 0 0 0 0 0 0 0 0
115 159 123 85 0 0 0 37 32 37 0 0 1 0 0 6 0 0 55 34 0 14 23 0 0 0 0 0 1 0 0 0 0 0 0 0 0 0 0 0 0 0 0 0 0
107 126 124 43 5 0 7 52 27 5 0 0 1 0 2 17 16 18 16 28 9 27 21 0 16 13 4 3 2 7 11 11 11 0 0 0 0 0 0 0 0 0 0 0 0
140 117 93 31 0 13 47 10 0 0 0 0 0 0 0 0 9 27 0 14 0 0 0 0 0 20 13 10 7 31 4 0 0 0 0 0 0 0 0 0 0 0 0 0 0
153 160 37 25 0 11 6 11 0 0 0 0 0 0 0 0 0 0 0 0 3 0 0 0 0 0 15 0 0 10 7 0 0 0 0 0 0 0 0 0 0 0 0 0 0
173 52 2 0 0 14 5 0 0 0 0 0 0 0 0 0 0 0 0 0 0 1 0 0 0 0 0 0 0 0 0 0 0 0 0 0 0 0 0 0 0 0 0 0 0
41 0 0 22 15 2 5 0 0 0 0 0 0 0 0 0 0 0 0 0 0 8 1 0 0 0 0 16 23 18 4 12 0 0 0 0 0 0 0 0 0 0 0 0 0
0 1 0 22 5 4 0 0 0 0 0 0 0 0 0 0 0 0 0 0 3 12 14 11 0 0 2 2 0 18 18 13 4 19 0 0 0 0 0 0 0 0 0 0 0
0 1 8 19 0 4 1 5 0 0 0 7 3 0 0 0 0 0 0 0 0 0 22 17 28 0 0 0 0 0 0 1 0 0 0 0 0 0 0 0 0 0 0 0 0
0 0 0 27 1 4 5 25 3 1 0 3 9 12 8 0 0 0 10 0 0 1 19 21 25 0 0 4 18 22 7 1 0 6 0 0 0 0 8 3 0 0 1 0 0
0 0 33 2 1 25 10 20 9 2 15 10 17 30 20 0 41 0 0 9 9 37 45 33 28 11 0 0 0 6 0 2 26 21 0 0 0 0 4 8 1 1 0 0 1
0 0 15 6 0 9 15 12 7 6 6 0 2 25 0 0 0 0 17 20 27 22 54 80 14 14 0 0 15 3 0 2 28 0 5 0 0 1 2 10 4 5 0 2 1
15 2 1 0 0 0 2 6 0 12 8 2 38 0 19 0 0 0 3 17 18 59 96 70 63 13 5 6 8 14 8 2 1 1 23 2 0 0 0 0 0 0 1 4 14
0 0 5 6 4 2 0 0 0 2 13 0 0 0 20 0 0 0 34 33 49 30 11 2 0 0 6 0 3 45 0 0 0 1 1 3 0 19 2 10 24 23 32 17 10

GFSSW_con_mucape_147.txt.gz
CAPE
131 114 84 102 96 42 9 5 0 0 0 0 0 0 0 0 0 0 0 0 0 0 0 0 0 0 0 0 0 0 0 0 0 0 0 0 0 0 0 0 0 0 0 0 0
88 99 85 77 82 96 93 73 40 0 0 0 0 0 0 0 0 0 0 0 0 0 0 0 0 0 0 0 0 0 0 0 0 0 0 0 0 0 0 0 0 0 0 0 0
76 89 112 104 86 87 78 87 62 28 3 0 0 0 0 0 0 0 0 0 0 0 0 0 0 0 0 0 0 0 0 0 0 0 0 0 0 0 0 0 0 0 0 0 0
93 98 84 91 109 90 92 80 68 45 53 14 0 0 0 0 0 0 8 15 0 0 0 0 0 0 0 0 0 0 0 0 0 0 0 0 0 0 0 0 0 0 0 0 0
82 90 97 114 138 102 101 99 65 58 82 52 8 16 3 0 0 0 0 0 0 0 0 0 0 0 0 0 0 0 0 0 0 0 0 0 0 0 0 0 0 0 0 0 0
82 67 86 106 162 123 103 98 88 64 73 93 45 51 1 0 0 0 0 0 0 0 0 0 0 0 0 0 0 0 0 0 0 0 0 0 0 0 0 0 0 0 0 0 0
83 75 86 131 126 119 102 73 75 71 68 79 79 25 0 0 0 0 0 0 1 0 0 0 0 0 0 0 0 0 0 0 0 0 0 0 0 0 0 0 0 0 0 0 0
97 53 79 94 108 82 75 70 80 68 50 72 74 7 1 0 0 0 0 0 0 0 4 0 1 9 3 0 2 0 0 0 0 0 0 0 0 0 0 0 0 0 0 0 0
127 65 93 78 82 81 66 48 67 70 69 94 37 24 0 0 0 0 0 0 0 1 8 16 27 14 13 4 0 4 0 0 0 0 0 0 0 0 0 0 0 0 0 0 0
110 98 100 91 77 85 95 89 90 37 55 44 36 8 7 0 0 0 0 0 19 13 29 32 27 25 30 15 0 0 0 0 0 0 0 0 0 0 0 0 0 0 0 0 0
89 109 116 106 120 122 52 18 11 3 30 0 5 0 0 0 0 0 0 3 28 27 0 24 0 0 0 0 0 0 0 0 0 0 0 0 0 0 0 0 0 0 0 0 0
136 116 147 156 161 133 18 4 0 0 0 0 12 5 1 0 0 0 0 0 0 0 0 0 0 0 0 0 0 0 0 0 0 0 0 0 0 0 0 0 0 0 0 0 0
172 189 163 151 152 75 5 2 0 0 0 0 0 0 0 0 0 0 0 1 0 0 0 0 0 0 0 0 0 0 0 0 0 0 0 0 0 0 0 0 0 0 0 0 0
241 204 181 168 56 1 8 0 3 0 0 0 0 0 3 0 0 0 0 0 10 0 0 0 0 0 0 0 0 0 0 0 0 0 0 0 0 0 0 0 0 0 0 0 0
242 226 184 153 9 7 0 24 15 5 0 0 0 0 0 3 0 0 2 10 0 0 0 0 0 0 0 0 0 0 0 0 0 0 0 0 0 0 0 0 0 0 0 0 0
194 168 177 23 8 16 28 45 35 0 0 0 0 0 0 0 0 10 0 4 1 1 0 0 0 0 0 0 11 0 0 0 0 0 0 0 0 0 0 0 0 0 0 0 0
144 127 85 4 3 3 48 38 0 0 0 0 0 0 0 0 0 0 0 0 0 0 0 0 0 0 0 0 0 0 0 0 0 0 0 0 0 0 0 0 0 0 0 0 0
4 65 27 0 12 42 31 44 0 0 0 0 0 0 0 0 0 3 0 0 0 0 0 0 0 0 1 0 0 0 0 0 0 0 0 0 0 0 0 0 0 0 0 0 0
0 0 22 0 12 24 15 0 0 0 0 0 0 0 0 0 0 0 0 0 2 3 0 0 0 0 1 0 0 0 0 0 0 0 0 0 0 0 0 0 0 0 0 0 0
0 0 1 16 10 10 32 0 0 0 0 0 0 0 0 0 0 0 0 0 1 0 0 0 0 0 0 22 20 6 11 0 0 0 0 0 0 0 0 0 0 0 0 0 0
0 14 0 38 0 31 19 2 0 0 0 0 0 0 0 0 0 0 0 0 0 0 0 8 0 0 0 0 0 8 0 0 0 0 0 0 0 0 0 0 0 0 0 0 0
0 0 0 48 39 40 0 3 0 0 0 0 0 0 0 0 0 0 0 0 0 0 0 0 5 0 0 3 34 28 0 0 0 0 0 0 0 0 0 0 0 0 0 0 0
7 0 44 0 1 1 0 3 3 0 0 0 0 0 0 0 0 0 0 0 0 7 20 16 0 0 0 0 25 0 1 26 38 0 0 0 0 0 0 0 0 0 0 0 0
4 0 15 0 0 0 4 0 0 1 0 0 0 0 0 0 9 0 0 4 4 19 57 48 18 0 0 0 0 0 0 14 10 0 0 0 0 0 0 0 0 0 0 0 0
34 0 0 12 3 0 0 0 0 1 0 0 0 0 0 0 0 0 19 36 46 39 33 28 0 0 0 0 0 0 0 0 0 0 0 0 0 0 0 0 0 0 0 0 0
0 1 3 0 0 0 2 1 1 2 0 0 0 0 0 0 0 0 27 32 24 41 31 23 0 13 0 0 18 0 0 0 0 0 0 0 0 0 0 0 0 0 0 0 0
0 0 0 2 0 0 0 0 0 0 0 0 0 0 0 0 0 0 1 5 37 51 58 38 29 2 0 0 0 0 0 0 0 0 3 0 0 0 0 0 0 0 0 0 0